Tracking 29487 objects as of 11-Sep-2024
HD Live streaming from Space Station
objects crossing your sky now

COSMOS 2523

Track COSMOS 2523 now!
10-day predictions


NORAD ID: 42986
Int'l Code: 2017-037E
Perigee: 551.4 km
Apogee: 650.6 km
Inclination: 97.6 °
Period: 96.6 minutes
Semi major axis: 6972 km
RCS: Unknown
Launch date: June 23, 2017
Source: Commonwealth of Independent States (former USSR) (CIS)
Launch site: PLESETSK MISSILE AND SPACE COMPLEX (PKMTR)
Your satellite tracking list
Your tracking list is empty




NASA's NSSDC Master Catalog

Two Line Element Set (TLE):
1 42986U 17037E   24254.91938783  .00005809  00000-0  56095-3 0  9992
2 42986  97.5517 284.5547 0071120 225.7664 133.7703 14.91301800372781
Source of the keplerian elements: AFSPC